Regional Weather Roundup
Issued by NWS State College, PA

Home | Current Version | Previous Version | Text Only | Print | Product List | Glossary On
Versions: 1 2 3 4 5 6 7 8 9 10 11 12 13 14 15 16 17 18 19 20 21 22 23 24 25 26 27 28 29 30 31 32 33 34 35 36 37 38 39 40 41 42 43 44 45 46 47 48 49 50
000
ASUS41 KCTP 271710
RWRCTP

REGIONAL WEATHER ROUNDUP
NATIONAL WEATHER SERVICE STATE COLLEGE PA
1200 PM EST FRI FEB 27 2015

Note: "fair" indicates few or no clouds below 12,000 feet with no
significant weather and/or obstructions to visibility.

* = STATION THAT DOES NOT REPORT PRECIPITATION /E.G. RAIN...SNOW...ETC/
    THUNDER OR FOG.

PAZ002>004-007>009-013>016-020>023-029>032-271800-
WESTERN PENNSYLVANIA

CITY           SKY/WX    TMP DP  RH WIND       PRES   REMARKS
ERIE           MOSUNNY   10   0  63 W7        30.55R WCI  -1
MEADVILLE        N/A      9  -4  55 W7        30.46R WCI  -2
FRANKLIN*      SUNNY      9  -6  52 W6        30.45R WCI  -1
NEW CASTLE     FAIR       9  -5  53 VRB5      30.52R WCI   1
BEAVER COUNTY  SUNNY     12  -2  52 NW5       30.49R WCI   4
BUTLER*        SUNNY     10  -2  56 W9        30.49R WCI  -2
PITTSBURGH INT MOSUNNY   12   1  61 NW8       30.48R WCI   0
PITTSBURGH     MOSUNNY   13  -2  51 W6        30.47R WCI   4
INDIANA*       CLOUDY    12   3  67 NW9       30.47R WCI   0
LATROBE        FLURRIES  12   5  73 SW12      30.49R WCI  -2
WASHINGTON CO* MOSUNNY   14   3  62 SW7       30.50S WCI   4
$$

PAZ004>006-010>012-017>019-024>028-033>037-041-042-045-046-049>053-271800-
CENTRAL PENNSYLVANIA

CITY           SKY/WX    TMP DP  RH WIND       PRES   REMARKS
BRADFORD       SUNNY     10  -5  50 SW7       30.32R WCI  -1
DUBOIS         MOSUNNY   11   1  64 W12       30.36R WCI  -3
CLEARFIELD     MIX PCPN  14   1  56 NW9       30.38R WCI   2
JOHNSTOWN      CLOUDY    10   2  69 W12       30.32R WCI  -5
ALTOONA        MOSUNNY   16   3  56 W6        30.38R WCI   7
STATE COLLEGE  PTSUNNY   18   3  53 W9        30.41R WCI   6
WILLIAMSPORT   MOSUNNY   24   2  38 VRB7      30.44R
SELINSGROVE    SUNNY     21   3  45 CALM      30.45R
FT INDIANTOWN  SUNNY     22   1  41 W8        30.43R WCI  12
CAPITAL CITY   MOSUNNY   23   5  46 N9        30.45R WCI  13
HARRISBURG     MOSUNNY   24   7  48 NW8       30.45R
YORK           SUNNY     23   7  50 NW10G17   30.43R WCI  12
$$

PAZ038>040-043-044-047-048-054-055-060>062-067>071-271800-
EASTERN PENNSYLVANIA

CITY           SKY/WX    TMP DP  RH WIND       PRES   REMARKS
SCRANTON       MOSUNNY   18   3  52 N7        30.38R WCI   9
MOUNT POCONO     N/A    N/A N/A N/A MISG      30.27R
ALLENTOWN      SUNNY     25   0  33 CALM      30.41S
QUAKERTOWN*    FAIR      21   5  49 W7        30.41R WCI  13
READING        SUNNY     23   4  44 NW9       30.42S WCI  13
LANCASTER      SUNNY     22   7  52 NW9       30.42S WCI  12
COATESVILLE    SUNNY     25  10  54 NW10      30.40R WCI  15
POTTSTOWN      SUNNY     24   5  44 N8        30.43R
BLUE BELL      SUNNY     28  10  47 NW7       30.41R
DOYLESTOWN     SUNNY     23   6  48 N8        30.40R WCI  14
WILLOW GROVE   NOT AVBL
NORTH PHILA    PTSUNNY   28   8  43 N9        30.43F
PHILADELPHIA   PTSUNNY   27  10  49 N7        30.44R
$$



USA.gov is the U.S. government's official web portal to all federal, state and local government web resources and services.